Tracking 30922 objects as of 2-Jul-2025
HD Live streaming from Space Station
objects crossing your sky now

COSMOS 839 DEB *

Track COSMOS 839 DEB * now!
10-day predictions


NORAD ID: 18689
Int'l Code: 1976-067BR
Perigee: 1,113.0 km
Apogee: 2,671.9 km
Inclination: 65.8 °
Period: 124.6 minutes
Semi major axis: 8263 km
RCS: 0.0093 m2 (small)
Launch date: July 8, 1976
Source: Commonwealth of Independent States (former USSR) (CIS)
Launch site: PLESETSK MISSILE AND SPACE COMPLEX (PKMTR)

Note: This is SATELLITE DEBRIS
Your satellite tracking list
ARIANE 5 R/B
Track 1 satellite(s)




NASA's NSSDC Master Catalog

Two Line Element Set (TLE):
1 18689U 76067BR  25182.87840672 -.00000014  00000-0  21896-3 0  9993
2 18689  65.8168 142.0484 0943225 280.5385  95.7594 11.55745090351967
Source of the keplerian elements: AFSPC